Location: Prostejov
(49.4670°N, 17.1170°E)
Time: 11:27:48
(UTC+02:00)

ISS - Pass Details

Date: 19 May 2021
Orbit: 417 x 422 km, 51.6° (Epoch: 13 June)

Event Time Altitude Azimuth Distance (km) Brightness Sun altitude
Rises 22:06:07 0° 260° (W) 2,361 0.5 -11.8°
Reaches altitude 10° 22:08:13 10° 263° (W) 1,499 -0.5 -12.1°
Maximum altitude 22:11:35 70° 348° (NNW) 451 -3.5 -12.4°
Drops below altitude 10° 22:14:57 10° 72° (ENE) 1,505 -1.1 -12.7°
Sets 22:17:04 0° 75° (ENE) 2,371 -0.2 -12.9°
